Flag Weather past 2 weeks in Melo, Uruguay

Now
70 °F

Partly cloudy.


Feels Like: 70 °F
Forecast: 58 / 81 °F
Wind: 7 mph from Southeast

Location: Pelotas Airport

Current Time: Nov 26, 2014 at 2:25:56 AM

Latest Report: Nov 26, 2014 at 1:00 AM


Visibility: N/A

Pressure: 29.83 "Hg

Humidity: 94%

Dew point: 68 °F

Location of MeloLocation

Historic Weather in Melo — Graph

°F

Melo temperature yesterday

Maximum temperature yesterday: 77 °F (at 11:00 AM)
Minimum temperature yesterday: 70 °F (at 11:00 PM)
Average temperature yesterday: 73 °F

Past Weeks' High & Low Weather Summary

 TemperatureHumidityPressure
High95 °F (Nov 24, 3:00 PM)100% (Nov 11, 3:00 AM)30.12 "Hg (Nov 11, 3:00 AM)
Low52 °F (Nov 14, 5:00 AM)20% (Nov 24, 5:00 PM)29.65 "Hg (Nov 22, 2:00 AM)
Average71 °F77%29.90 "Hg
* Reported Nov 11 1:00 AM — Nov 26 1:00 AM, Melo, Weather by CustomWeather, © 2014

Note: Actual official high and low records may vary slightly from our data, if they occured in-between our weather recording intervals... More about our weather records

Advertising

Melo weather history for previous 24 hours

 ConditionsComfort  
Time TempWeatherWind HumidityBarometerVisibility
1:00 AM
Nov 26
70 °FPartly cloudy.7 mph94%29.83 "HgN/A
12:00 AM70 °FMostly cloudy.8 mph94%29.86 "HgN/A
11:00 PM
Nov 25
70 °FMostly cloudy.7 mph94%29.86 "HgN/A
10:00 PM72 °FMostly cloudy.9 mph88%29.86 "HgN/A
9:00 PM72 °FOvercast.9 mph83%29.86 "HgN/A
8:00 PM72 °FOvercast.9 mph88%29.83 "HgN/A
7:00 PM73 °FOvercast.12 mph83%29.83 "HgN/A
6:00 PM73 °FPartly sunny.12 mph83%29.80 "HgN/A
5:00 PM75 °FScattered clouds.15 mph78%29.83 "HgN/A
4:00 PM77 °FScattered clouds.15 mph74%29.83 "HgN/A
3:00 PM77 °FScattered clouds.18 mph79%29.83 "HgN/A
2:00 PM77 °FScattered clouds.10 mph79%29.83 "HgN/A
1:00 PM77 °FBroken clouds.10 mph79%29.86 "HgN/A
12:00 PM75 °FBroken clouds.9 mph83%29.86 "HgN/A
11:00 AM77 °FPartly sunny.7 mph83%29.86 "HgN/A
10:00 AM73 °FBroken clouds.7 mph94%29.86 "Hg5 mi
9:00 AM72 °FFog.6 mph100%29.86 "Hg2 mi
8:00 AM72 °FFog.6 mph100%29.83 "Hg3 mi
7:00 AM72 °FFog.6 mph100%29.83 "Hg2 mi
6:00 AM72 °FFog.2 mph100%29.77 "Hg3 mi
5:00 AM72 °FFog.25 mph100%29.80 "Hg2 mi
4:00 AM72 °FFog.2 mph100%29.80 "Hg2 mi
3:00 AM73 °FFog.6 mph100%29.83 "Hg3 mi
2:00 AM73 °FClear.6 mph100%29.80 "Hg10 mi
Weather by CustomWeather, © 2014

See weather overviewHow to use our weather pages